EW6800 Weather Reports


time (UTC)temp
F
wind
direction
speed
knots
gust
knots
rain 1hr
in
rain 24hr
in
rain mn
in
humidity
%
barometer
mb
20260903070100 53 312 4.3 7.8 0.00 0.00 0.00 90 1017.0
20260903065546 53 302 5.2 7.8 0.00 0.00 0.00 91 1016.8
20260903065043 53 313 4.3 7.0 0.00 0.00 0.00 92 1016.9
20260903064559 52 333 4.3 7.0 0.00 0.00 0.00 92 1016.9
20260903064043 53 315 3.5 6.1 0.00 0.00 0.00 92 1016.9
20260903063543 53 315 3.5 6.1 0.00 0.00 0.00 92 1016.9
20260903063106 53 307 2.6 5.2 0.00 0.00 0.00 92 1017.0
20260903062547 53 316 2.6 5.2 0.00 0.00 0.00 92 1017.0
20260903062043 53 317 3.5 6.1 0.00 0.00 0.00 92 1017.0
20260903061600 53 312 3.5 6.1 0.00 0.00 0.00 92 1017.1
20260903061042 53 309 3.5 6.1 0.00 0.00 0.00 91 1017.1
20260903060543 54 315 2.6 7.0 0.00 0.00 0.00 91 1017.1
20260903060058 54 317 3.5 7.0 0.00 0.00 0.00 90 1017.2
20260903055543 54 306 3.5 7.0 0.00 0.00 0.00 89 1017.2
20260903055043 54 308 2.6 6.1 0.00 0.00 0.00 88 1017.3
20260903054556 54 296 2.6 6.1 0.00 0.00 0.00 87 1017.4
20260903054043 54 326 2.6 7.0 0.00 0.00 0.00 86 1017.5
20260903053547 54 318 2.6 7.0 0.00 0.00 0.00 86 1017.4
20260903053117 55 305 3.5 7.0 0.00 0.00 0.00 85 1017.4
20260903052633 55 305 3.5 7.0 0.00 0.00 0.00 85 1017.5
20260903052043 55 311 4.3 7.0 0.00 0.00 0.00 84 1017.4
20260903051559 55 312 3.5 7.0 0.00 0.00 0.00 83 1017.5
20260903051046 55 316 4.3 7.8 0.00 0.00 0.00 82 1017.4
20260903050547 55 302 4.3 7.8 0.00 0.00 0.00 82 1017.5
20260903050106 55 309 6.1 8.7 0.00 0.00 0.00 82 1017.6
20260903045544 55 315 6.1 8.7 0.00 0.00 0.00 81 1017.5
20260903045043 55 299 6.1 8.7 0.00 0.00 0.00 80 1017.5
20260903044601 55 312 5.2 8.7 0.00 0.00 0.00 80 1017.5
20260903044043 55 314 4.3 7.8 0.00 0.00 0.00 80 1017.5
20260903043543 55 317 4.3 7.8 0.00 0.00 0.00 80 1017.4
20260903043112 54 315 4.3 7.0 0.00 0.00 0.00 82 1017.4
20260903042544 54 308 3.5 4.3 0.00 0.00 0.00 84 1017.4
20260903042047 54 314 1.7 4.3 0.00 0.00 0.00 88 1017.4
20260903041600 54 317 2.6 4.3 0.00 0.00 0.00 89 1017.3
20260903041045 54 313 2.6 4.3 0.00 0.00 0.00 90 1017.4
20260903040544 54 317 2.6 4.3 0.00 0.00 0.00 90 1017.2
20260903040058 54 319 1.7 3.5 0.00 0.00 0.00 89 1017.3
20260903035543 55 322 1.7 4.3 0.00 0.00 0.00 90 1017.3
20260903035044 55 306 1.7 4.3 0.00 0.00 0.00 89 1017.2
20260903034608 55 307 1.7 3.5 0.00 0.00 0.00 89 1017.1
20260903034043 55 309 1.7 4.3 0.00 0.00 0.00 89 1017.1
20260903033543 55 313 1.7 5.2 0.00 0.00 0.00 89 1017.1
20260903033100 55 321 1.7 6.1 0.00 0.00 0.00 88 1017.1
20260903032544 55 313 2.6 6.1 0.00 0.00 0.00 88 1017.1
20260903032046 55 312 2.6 6.1 0.00 0.00 0.00 88 1017.1
20260903031618 56 309 2.6 7.0 0.00 0.00 0.00 87 1017.1
20260903031044 56 317 2.6 7.0 0.00 0.00 0.00 87 1017.1
20260903030543 56 301 3.5 7.0 0.00 0.00 0.00 86 1017.1
20260903030054 56 315 3.5 7.0 0.00 0.00 0.00 86 1017.0
20260903025544 56 304 3.5 7.0 0.00 0.00 0.00 85 1017.0
20260903025047 57 309 3.5 7.0 0.00 0.00 0.00 84 1017.0
20260903024600 57 311 3.5 7.8 0.00 0.00 0.00 83 1017.1
20260903024044 57 306 3.5 7.8 0.00 0.00 0.00 83 1017.0
20260903023547 57 313 5.2 7.8 0.00 0.00 0.00 82 1017.0
20260903023059 58 312 4.3 7.8 0.00 0.00 0.00 80 1017.0
20260903022545 58 304 5.2 7.8 0.00 0.00 0.00 79 1017.0
20260903022045 58 306 4.3 7.8 0.00 0.00 0.00 78 1017.0
20260903021555 58 319 5.2 7.8 0.00 0.00 0.00 76 1017.0
20260903021118 58 303 4.3 7.8 0.00 0.00 0.00 75 1016.9
20260903020544 58 302 5.2 7.8 0.00 0.00 0.00 76 1017.1
20260903020104 59 318 4.3 7.8 0.00 0.00 0.00 74 1017.2
20260903015543 59 316 5.2 8.7 0.00 0.00 0.00 75 1017.2
20260903015042 59 308 4.3 8.7 0.00 0.00 0.00 76 1017.2
20260903014556 59 291 5.2 8.7 0.00 0.00 0.00 76 1017.3
20260903014044 60 323 5.2 8.7 0.00 0.00 0.00 76 1017.3
20260903013544 60 324 4.3 9.6 0.00 0.00 0.00 76 1017.4
20260903013057 60 309 4.3 9.6 0.00 0.00 0.00 77 1017.4
20260903012544 61 313 4.3 8.7 0.00 0.00 0.00 77 1017.4
20260903012043 61 298 3.5 7.8 0.00 0.00 0.00 77 1017.4
20260903011559 61 302 5.2 7.8 0.00 0.00 0.00 77 1017.4
20260903011043 61 286 3.5 6.1 0.00 0.00 0.00 78 1017.5
20260903010545 62 303 3.5 6.1 0.00 0.00 0.00 78 1017.4
20260903010056 62 299 2.6 6.1 0.00 0.00 0.00 77 1017.5
20260903005545 62 302 2.6 7.0 0.00 0.00 0.00 77 1017.5
20260903005043 62 314 3.5 7.0 0.00 0.00 0.00 76 1017.4
20260903004601 62 302 4.3 7.8 0.00 0.00 0.00 76 1017.4
20260903004044 63 302 3.5 7.8 0.00 0.00 0.00 75 1017.4
20260903003544 63 321 3.5 7.0 0.00 0.00 0.00 75 1017.4
20260903003105 63 299 3.5 7.0 0.00 0.00 0.00 75 1017.4
20260903002543 63 309 4.3 9.6 0.00 0.00 0.00 75 1017.3
20260903002044 64 315 4.3 9.6 0.00 0.00 0.00 74 1017.3
20260903001554 64 317 4.3 8.7 0.00 0.00 0.00 74 1017.4
20260903001051 64 313 2.6 7.8 0.00 0.00 0.00 74 1017.5
20260903000543 64 307 2.6 7.8 0.00 0.00 0.00 73 1017.5
20260903000057 65 294 2.6 7.8 0.00 0.00 0.00 71 1017.4
20260902235543 65 310 2.6 6.1 0.00 0.00 0.00 71 1017.5
20260902235044 66 328 1.7 6.1 0.00 0.00 0.00 71 1017.5
20260902234555 66 306 2.6 7.8 0.00 0.00 0.00 69 1017.5
20260902234047 67 311 2.6 7.8 0.00 0.00 0.00 67 1017.5
20260902233544 68 315 1.7 4.3 0.00 0.00 0.00 65 1017.5
20260902233059 69 318 0.9 7.8 0.00 0.00 0.00 64 1017.5
20260902232543 69 0 0.9 7.8 0.00 0.00 0.00 64 1017.5
20260902232043 69 278 0.9 5.2 0.00 0.00 0.00 63 1017.5
20260902231601 69 0 0.9 3.5 0.00 0.00 0.00 63 1017.5
20260902231044 69 0 0.9 7.0 0.00 0.00 0.00 64 1017.5
20260902230544 69 0 0.9 7.0 0.00 0.00 0.00 63 1017.5
20260902230056 69 214 0.9 6.1 0.00 0.00 0.00 63 1017.6
20260902225543 69 298 0.9 6.1 0.00 0.00 0.00 63 1017.6
20260902225046 69 239 1.7 5.2 0.00 0.00 0.00 63 1017.7
20260902224556 69 54 0.9 3.5 0.00 0.00 0.00 66 1017.7
20260902224044 69 0 0.9 3.5 0.00 0.00 0.00 67 1017.7
20260902223543 69 279 0.9 5.2 0.00 0.00 0.00 66 1017.8
20260902223102 69 0 0.0 6.1 0.00 0.00 0.00 67 1017.7
20260902222545 69 217 0.9 6.1 0.00 0.00 0.00 65 1017.8
20260902222045 69 211 0.0 4.3 0.00 0.00 0.00 67 1017.8
20260902221607 69 209 0.9 6.1 0.00 0.00 0.00 65 1017.9
20260902221046 69 0 0.9 6.1 0.00 0.00 0.00 66 1018.0
20260902220543 68 269 1.7 6.1 0.00 0.00 0.00 64 1018.1
20260902220100 68 154 0.0 5.2 0.00 0.00 0.00 68 1018.1
20260902215543 68 0 0.0 5.2 0.00 0.00 0.00 68 1018.2
20260902215043 67 144 0.9 5.2 0.00 0.00 0.00 70 1018.2
20260902214604 66 0 0.9 6.1 0.00 0.00 0.00 73 1018.3
20260902214044 66 117 1.7 6.1 0.00 0.00 0.00 75 1018.4
20260902213544 66 235 0.0 6.1 0.00 0.00 0.00 74 1018.5
20260902213059 65 100 1.7 6.1 0.00 0.00 0.00 75 1018.5
20260902212544 66 117 0.9 5.2 0.00 0.00 0.00 75 1018.5
20260902212044 66 101 0.9 4.3 0.00 0.00 0.00 76 1018.6
20260902211614 65 0 0.0 2.6 0.00 0.00 0.00 78 1018.6
20260902211043 64 0 0.0 6.1 0.00 0.00 0.00 78 1018.6
20260902210543 63 0 0.9 6.1 0.00 0.00 0.00 82 1018.6
20260902210114 63 146 1.7 4.3 0.00 0.00 0.00 83 1018.7
20260902205547 62 181 0.9 3.5 0.00 0.00 0.00 85 1018.7
20260902205043 61 140 0.9 3.5 0.00 0.00 0.00 88 1018.7
20260902204557 61 135 0.0 4.3 0.00 0.00 0.00 88 1018.7
20260902204043 60 136 1.7 4.3 0.00 0.00 0.00 86 1018.8
20260902203542 61 150 0.9 5.2 0.00 0.00 0.00 86 1018.7
20260902203059 61 0 0.9 5.2 0.00 0.00 0.00 87 1018.7
20260902202544 61 0 0.0 2.6 0.00 0.00 0.00 88 1018.7
20260902202044 60 0 0.9 2.6 0.00 0.00 0.00 88 1018.8
20260902201611 60 0 0.9 2.6 0.00 0.00 0.00 87 1018.9
20260902201045 60 0 0.9 2.6 0.00 0.00 0.00 87 1019.0
20260902200546 60 0 0.0 2.6 0.00 0.00 0.00 86 1019.0
20260902200053 60 0 0.9 2.6 0.00 0.00 0.00 86 1019.0
20260902195544 60 0 0.0 2.6 0.00 0.00 0.00 85 1019.0
20260902195043 60 0 0.9 4.3 0.00 0.00 0.00 85 1018.9
20260902194554 60 143 0.9 5.2 0.00 0.00 0.00 84 1018.9
20260902194048 60 144 1.7 5.2 0.00 0.00 0.00 83 1018.9
20260902193544 60 161 1.7 5.2 0.00 0.00 0.00 84 1018.8
20260902193051 60 154 2.6 5.2 0.00 0.00 0.00 83 1018.8
20260902192546 60 123 0.0 6.1 0.00 0.00 0.00 84 1018.9
20260902192044 60 128 2.6 6.1 0.00 0.00 0.00 83 1018.9
20260902191602 60 177 0.0 1.7 0.00 0.00 0.00 83 1018.9
20260902191043 60 180 0.0 5.2 0.00 0.00 0.00 83 1019.0
20260902190543 59 186 1.7 5.2 0.00 0.00 0.00 84 1018.9
20260902190054 59 141 1.7 6.1 0.00 0.00 0.00 84 1018.9
20260902185543 59 146 2.6 6.1 0.00 0.00 0.00 85 1018.9
20260902185045 59 113 2.6 5.2 0.00 0.00 0.00 86 1019.1
20260902184557 59 142 1.7 6.1 0.00 0.00 0.00 86 1019.1
20260902184047 59 145 2.6 6.1 0.00 0.00 0.00 86 1019.0
20260902183548 59 140 1.7 4.3 0.00 0.00 0.00 86 1018.9
20260902183051 58 0 0.9 4.3 0.00 0.00 0.00 86 1018.9
20260902182544 58 137 1.7 4.3 0.00 0.00 0.00 86 1018.9
20260902182043 58 151 1.7 6.1 0.00 0.00 0.00 86 1018.8
20260902181559 58 146 2.6 6.1 0.00 0.00 0.00 87 1018.7
20260902181043 58 135 2.6 7.0 0.00 0.00 0.00 87 1018.8
20260902180543 58 150 2.6 7.0 0.00 0.00 0.00 87 1018.8
20260902180116 57 138 2.6 6.1 0.00 0.00 0.00 88 1018.8
20260902175543 57 144 3.5 6.1 0.00 0.00 0.00 88 1018.7
20260902175043 57 132 1.7 7.0 0.00 0.00 0.00 88 1018.7
20260902174559 57 134 3.5 7.0 0.00 0.00 0.00 87 1018.7
20260902174045 57 149 3.5 6.1 0.00 0.00 0.00 86 1018.7
20260902173544 57 134 1.7 7.0 0.00 0.00 0.00 87 1018.6
20260902173101 57 162 2.6 7.0 0.00 0.00 0.00 87 1018.7
20260902172543 57 142 2.6 6.1 0.00 0.00 0.00 87 1018.6
20260902172043 57 163 1.7 6.1 0.00 0.00 0.00 86 1018.6
20260902171600 57 152 1.7 4.3 0.00 0.00 0.00 86 1018.7
20260902171047 57 152 0.9 5.2 0.00 0.00 0.00 86 1018.5
20260902170545 57 144 1.7 5.2 0.00 0.00 0.00 86 1018.4
20260902170111 57 132 1.7 4.3 0.00 0.00 0.00 87 1018.5
20260902165544 57 128 1.7 3.5 0.00 0.00 0.00 87 1018.4
20260902165044 57 150 0.9 3.5 0.00 0.00 0.00 87 1018.5
20260902164601 57 134 0.9 4.3 0.00 0.00 0.00 87 1018.4
20260902164043 57 134 1.7 4.3 0.00 0.00 0.00 87 1018.4
20260902163544 56 156 1.7 6.1 0.00 0.00 0.00 87 1018.5
20260902163057 56 125 1.7 7.0 0.00 0.00 0.00 87 1018.4
20260902162545 56 162 3.5 7.0 0.00 0.00 0.00 86 1018.4
20260902162044 56 140 3.5 7.0 0.00 0.00 0.00 86 1018.4
20260902161604 56 142 3.5 7.0 0.00 0.00 0.00 87 1018.5
20260902161044 56 145 2.6 6.1 0.00 0.00 0.00 87 1018.5
20260902160544 56 140 1.7 5.2 0.00 0.00 0.00 87 1018.5
20260902160059 56 145 1.7 3.5 0.00 0.00 0.00 87 1018.5
20260902155544 56 135 2.6 4.3 0.00 0.00 0.00 87 1018.6
20260902155047 56 146 2.6 4.3 0.00 0.00 0.00 86 1018.5
20260902154557 55 156 1.7 4.3 0.00 0.00 0.00 86 1018.5
20260902154043 55 149 1.7 7.0 0.00 0.00 0.00 86 1018.4
20260902153543 55 148 3.5 7.0 0.00 0.00 0.00 87 1018.3
20260902153054 55 152 3.5 7.0 0.00 0.00 0.00 87 1018.3
20260902152544 55 134 2.6 7.0 0.00 0.00 0.00 87 1018.1
20260902152042 55 138 4.3 6.1 0.00 0.00 0.00 87 1018.0
20260902151603 55 140 3.5 7.0 0.00 0.00 0.00 87 1018.0
20260902151043 55 131 3.5 7.0 0.00 0.00 0.00 87 1017.8
20260902150543 55 140 3.5 7.0 0.00 0.00 0.00 87 1017.9
20260902145544 55 152 0.9 3.5 0.00 0.00 0.00 86 1017.7
20260902145040 55 140 1.7 4.3 0.00 0.00 0.00 86 1017.7
20260902144607 55 141 1.7 4.3 0.00 0.00 0.00 86 1017.8
20260902144045 55 141 1.7 3.5 0.00 0.00 0.00 85 1017.9
20260902143541 55 0 0.9 3.5 0.00 0.00 0.00 85 1017.9
20260902143057 55 139 0.0 2.6 0.00 0.00 0.00 85 1017.7
20260902142544 55 139 0.0 2.6 0.00 0.00 0.00 84 1017.8
20260902142044 55 139 0.9 2.6 0.00 0.00 0.00 84 1017.8
20260902141550 55 121 0.0 2.6 0.00 0.00 0.00 84 1017.7
20260902141044 55 0 0.0 2.6 0.00 0.00 0.00 83 1017.7
20260902140544 55 137 0.9 2.6 0.00 0.00 0.00 84 1017.5
20260902140059 55 137 0.0 1.7 0.00 0.00 0.00 84 1017.5
20260902135544 55 0 0.0 1.7 0.00 0.00 0.00 84 1017.5
20260902135041 55 0 0.0 1.7 0.00 0.00 0.00 84 1017.4
20260902134557 55 0 0.0 1.7 0.00 0.00 0.00 84 1017.3
20260902134043 55 0 0.0 2.6 0.00 0.00 0.00 83 1017.2
20260902133543 55 137 0.9 2.6 0.00 0.00 0.00 83 1017.2
20260902133054 55 137 0.9 3.5 0.00 0.00 0.00 83 1017.3
20260902132545 55 0 1.7 3.5 0.00 0.00 0.00 83 1017.2
20260902132044 55 136 0.0 2.6 0.00 0.00 0.00 83 1017.3
20260902131554 55 136 1.7 2.6 0.00 0.00 0.00 83 1017.4
20260902131044 55 137 0.0 1.7 0.00 0.00 0.00 83 1017.4
20260902130543 55 0 0.0 2.6 0.00 0.00 0.00 83 1017.3
20260902130104 55 137 0.9 2.6 0.00 0.00 0.00 82 1017.3
20260902125543 55 136 0.9 2.6 0.00 0.00 0.00 82 1017.4
20260902125044 56 137 0.9 2.6 0.00 0.00 0.00 82 1017.3
20260902124557 55 137 0.9 2.6 0.00 0.00 0.00 82 1017.2
20260902124043 56 137 0.0 4.3 0.00 0.00 0.00 82 1017.2
20260902123546 55 138 0.9 5.2 0.00 0.00 0.00 82 1017.2
20260902123054 55 111 2.6 5.2 0.00 0.00 0.00 82 1017.4
20260902122544 55 0 0.0 3.5 0.00 0.00 0.00 82 1017.3
20260902122040 55 131 0.0 5.2 0.00 0.00 0.00 82 1017.2
20260902121550 55 131 2.6 5.2 0.00 0.00 0.00 82 1017.1
20260902121044 54 171 0.9 3.5 0.00 0.00 0.00 84 1017.1
20260902120544 54 0 0.0 3.5 0.00 0.00 0.00 85 1017.1
20260902115543 54 163 0.9 4.3 0.00 0.00 0.00 87 1017.0
20260902115043 54 136 1.7 4.3 0.00 0.00 0.00 88 1017.1
20260902114554 54 145 0.0 2.6 0.00 0.00 0.00 89 1017.2
20260902114044 54 0 0.0 0.0 0.00 0.00 0.00 89 1017.2
20260902113543 54 0 0.0 0.0 0.00 0.00 0.00 89 1017.1
20260902113055 54 0 0.0 0.0 0.00 0.00 0.00 89 1017.3
20260902112545 54 0 0.0 0.0 0.00 0.00 0.00 89 1017.4
20260902112044 54 0 0.0 0.0 0.00 0.00 0.00 89 1017.4
20260902111550 54 0 0.0 0.9 0.00 0.00 0.00 89 1017.4
20260902111044 54 0 0.0 2.6 0.00 0.00 0.00 90 1017.4
20260902110545 54 0 0.0 2.6 0.00 0.00 0.00 90 1017.3
20260902105546 54 134 0.9 3.5 0.00 0.00 0.00 90 1017.4
20260902105044 54 134 0.9 3.5 0.00 0.00 0.00 89 1017.3
20260902104554 54 0 0.0 0.0 0.00 0.00 0.00 90 1017.3
20260902104044 54 0 0.0 1.7 0.00 0.00 0.00 89 1017.3
20260902103543 54 0 0.0 1.7 0.00 0.00 0.00 89 1017.4
20260902103053 54 135 0.0 0.9 0.00 0.00 0.00 89 1017.3
20260902102543 54 323 0.0 1.7 0.00 0.00 0.00 90 1017.2
20260902102044 54 0 0.0 1.7 0.00 0.00 0.00 90 1017.2
20260902101550 54 0 0.0 1.7 0.00 0.00 0.00 90 1017.3
20260902101044 54 323 0.0 0.9 0.00 0.00 0.00 90 1017.3
20260902100544 54 0 0.0 0.9 0.00 0.00 0.00 90 1017.2
20260902100229 54 0 0.0 0.9 0.00 0.00 0.00 89 1017.2
20260902095543 54 0 0.0 0.9 0.00 0.00 0.00 89 1017.2
20260902095043 54 0 0.0 1.7 0.00 0.00 0.00 89 1017.3
20260902094615 54 0 0.0 1.7 0.00 0.00 0.00 89 1017.3
20260902094044 54 0 0.9 1.7 0.00 0.00 0.00 89 1017.4
20260902093544 54 0 0.0 1.7 0.00 0.00 0.00 88 1017.5
20260902093053 54 0 0.0 0.9 0.00 0.00 0.00 88 1017.4
20260902092543 54 0 0.0 2.6 0.00 0.00 0.00 88 1017.3
20260902092047 54 0 0.0 2.6 0.00 0.00 0.00 88 1017.4
20260902091603 54 323 0.0 3.5 0.00 0.00 0.00 88 1017.3
20260902091044 54 323 0.9 3.5 0.00 0.00 0.00 88 1017.4
20260902090544 54 323 0.9 2.6 0.00 0.00 0.00 88 1017.5
20260902090058 54 323 0.9 2.6 0.00 0.00 0.00 88 1017.4
20260902085545 54 323 0.9 2.6 0.00 0.00 0.00 88 1017.5
20260902085043 54 323 0.9 2.6 0.00 0.00 0.00 88 1017.5
20260902084556 54 321 0.9 3.5 0.00 0.00 0.00 88 1017.5
20260902084045 54 321 0.9 4.3 0.00 0.00 0.00 88 1017.6
20260902083544 54 0 1.7 4.3 0.00 0.00 0.00 87 1017.6
20260902083056 55 314 1.7 3.5 0.00 0.00 0.00 87 1017.5
20260902082546 55 314 1.7 3.5 0.00 0.00 0.00 87 1017.5
20260902082044 55 325 0.9 3.5 0.00 0.00 0.00 87 1017.5
20260902081601 55 325 0.9 4.3 0.00 0.00 0.00 86 1017.5
20260902081044 55 317 0.9 4.3 0.00 0.00 0.00 86 1017.6
20260902080544 55 317 1.7 4.3 0.00 0.00 0.00 85 1017.6
20260902080113 55 313 1.7 4.3 0.00 0.00 0.00 85 1017.6
20260902075547 55 310 1.7 3.5 0.00 0.00 0.00 85 1017.6
20260902075043 55 310 1.7 3.5 0.00 0.00 0.00 84 1017.6
20260902074557 55 0 0.9 3.5 0.00 0.00 0.00 84 1017.6
20260902074045 55 310 2.6 3.5 0.00 0.00 0.00 83 1017.6
20260902073544 55 310 1.7 3.5 0.00 0.00 0.00 83 1017.7
20260902073104 55 309 1.7 4.3 0.00 0.00 0.00 83 1017.7
20260902072545 55 309 1.7 4.3 0.00 0.00 0.00 82 1017.6
20260902072047 55 309 1.7 4.3 0.00 0.00 0.00 82 1017.6
20260902071603 55 0 0.9 2.6 0.00 0.00 0.00 82 1017.7
20260902071044 55 309 0.9 2.6 0.00 0.00 0.00 82 1017.6
20260902070543 55 0 0.9 2.6 0.00 0.00 0.00 82 1017.6
20260902070106 55 309 0.9 2.6 0.00 0.00 0.00 82 1017.7